Regional Weather Roundup
Issued by NWS

Home | Current Version | Previous Version | Graphics & Text | Print | Product List | Glossary On
Versions: 1 2 3 4 5 6 7 8 9 10 11 12 13 14 15 16 17 18 19 20 21 22 23 24 25 26 27 28 29 30 31 32 33 34 35 36 37 38 39 40 41 42 43 44 45 46 47 48 49 50
000
ASUS43 KLOT 250408
RWRIL

ILLINOIS REGIONAL WEATHER ROUNDUP
NATIONAL WEATHER SERVICE CHICAGO/ROMEOVILLE IL
1100 PM CDT FRI APR 24 2015

NOTE: "FAIR" INDICATES FEW OR NO CLOUDS BELOW 12,000 FEET WITH NO
SIGNIFICANT WEATHER AND/OR OBSTRUCTIONS TO VISIBILITY.

* THESE STATIONS ARE NOT UNDER NWS QUALITY CONTROL. THEY ALSO MAY NOT
  REPORT WEATHER SUCH AS PRECIPITATION OR FOG.

ILZ001-002-007-009-015-016-024-250500-
NORTHWEST ILLINOIS

CITY           SKY/WX    TMP DP  RH WIND       PRES   REMARKS
MOLINE         CLOUDY    49  41  74 E16       29.79S
STERLING*      CLOUDY    43  37  81 E20       29.83S
SAVANNA*       LGT RAIN  43  40  89 E17       29.83F
$$

ILZ003-004-008-010-011-017-018-250500-
NORTH CENTRAL ILLINOIS

CITY           SKY/WX    TMP DP  RH WIND       PRES   REMARKS
ROCKFORD       CLOUDY    42  36  79 E15       29.90F
FREEPORT*      CLOUDY    41  37  85 E12       29.89F
ROCHELLE*      LGT RAIN  40  39  94 E15G22    29.87F
DE KALB*       LGT RAIN  39  36  91 E13G18    29.90R WCI  31
PERU*          CLOUDY    44  37  76 E24G30    29.84F
$$

ILZ005-006-012>014-019>023-250500-
NORTHEAST ILLINOIS

CITY           SKY/WX    TMP DP  RH WIND       PRES   REMARKS
CHICAGO-OHARE  CLOUDY    41  35  79 E9        29.92R
CHICAGO-MIDWAY LGT RAIN  44  40  85 NE12      29.91F
AURORA         LGT RAIN  42  37  82 NE12      29.89F
LANSING*       HVY RAIN  44  35  71 SE12      29.90F
JOLIET*        RAIN      44  39  82 E13       29.87F
WAUKEGAN       CLOUDY    39  34  82 NE13      29.94R WCI  31
DUPAGE AIRPORT LGT RAIN  41  37  86 NE10      29.90R
KANKAKEE*      CLOUDY    44  37  77 NE9       29.88F
WHEELING       CLOUDY    41  35  79 NE7       29.95R
MORRIS*        LGT RAIN  43  37  78 E18       29.83F
ROMEOVILLE*    RAIN      42  37  83 E6        29.89F
NORTHERLY ISL    N/A     42  37  82 E18         N/A
$$

LMZ740>746-250500-
SOUTHERN LAKE MICHIGAN

STATION/POSITION SKY/WX   TEMP    WIND        PRES    VSBY  WAVE
                          AIR SEA DIR/SP/G                  HT/PER
                          (F)     (DEG/KT/KT) (MB)    (MI)  (FT/S)
HARRISON CRIB              41      90/ 16/ 21   N/A
BURNHAM HARBOR             42      10/ 11/ 23   N/A
CALUMET HARBOR             43      90/  9/ 13   N/A
BURNS HARBOR               46      80/ 16/ 22 1013.9S
MICHIGAN CITY              47      30/ 15/ 17   N/A
MICHIGAN CITY 6N           43 44   70/ 14/ 17   N/A           3/ 4
$$

ILZ025>027-034>036-040-047-049-050-058-095>099-250500-
WEST-CENTRAL ILLINOIS

CITY           SKY/WX    TMP DP  RH WIND       PRES   REMARKS
QUINCY         CLOUDY    57  45  64 S10       29.72R
GALESBURG*     CLOUDY    52  39  61 E12       29.77S
MACOMB*        CLOUDY    56  38  51 SE12      29.76F
JACKSONVILLE*  CLOUDY    57  45  63 S7        29.75F
PITTSFIELD*    CLOUDY    56  46  69 SE9       29.75S
$$

ILZ028>032-037-038-041>044-048-051>054-059>061-250500-
CENTRAL ILLINOIS

CITY           SKY/WX    TMP DP  RH WIND       PRES   REMARKS
PONTIAC        CLOUDY    48  38  68 E16       29.85F
BLOOMINGTON    CLOUDY    54  37  52 E8        29.83F
DECATUR        CLOUDY    56  37  49 SE8       29.79F
PEORIA         CLOUDY    58  32  37 SE8       29.79F
LACON*         CLOUDY    49  39  67 E13G21    29.81F
LINCOLN*       CLOUDY    56  37  47 SE3       29.78S
SPRINGFIELD    CLOUDY    57  40  52 S15       29.77F
TAYLORVILLE    CLOUDY    54  36  50 SE9       29.79F
$$

ILZ033-039-045-046-055>057-062-063-250500-
EAST-CENTRAL ILLINOIS

CITY           SKY/WX    TMP DP  RH WIND       PRES   REMARKS
CHAMPAIGN      CLOUDY    52  41  66 E7        29.83F
DANVILLE*      CLOUDY    53  38  57 NE6       29.84S
RANTOUL*       CLOUDY    54  41  60 E8        29.84F
MATTOON        CLOUDY    56  36  47 SE9       29.81F
PARIS*         CLOUDY    55  39  55 SE7       29.84F
$$

ILZ079-100>102-250500-
SOUTHWEST ILLINOIS

CITY           SKY/WX    TMP DP  RH WIND       PRES   REMARKS
ALTON          CLOUDY    55  43  64 SE8       29.76F
BELLEVILLE     CLOUDY    55  47  76 SE6       29.75F
CAHOKIA*       CLOUDY    55  46  71 S6        29.75F
SPARTA*        CLOUDY    55  45  67 SE6       29.78F
$$

ILZ064>066-069>071-074>076-080>082-084>086-088>090-092>094-250500-
SOUTH-CENTRAL ILLINOIS

CITY           SKY/WX    TMP DP  RH WIND       PRES   REMARKS
CARBONDALE     CLOUDY    57  43  59 S8        29.79F
CAIRO*         CLOUDY    57  53  84 S8        29.79S
EFFINGHAM*     CLOUDY    56  35  45 E6        29.83S
MARION         CLOUDY    59  45  58 S6        29.80F
MT. VERNON     CLOUDY    55  41  58 SE5       29.81F
CENTRALIA*     CLOUDY    56  41  58 SE8       29.79F
SALEM*         CLOUDY    58  42  55 SE7       29.80F
METROPOLIS*    CLOUDY    58  47  67 S5        29.78F
$$

ILZ067-068-072-073-078-083-087-091-250500-
SOUTHEAST ILLINOIS

CITY           SKY/WX    TMP DP  RH WIND       PRES   REMARKS
LAWRENCEVILLE  CLOUDY    57  39  51 SE7       29.85F
FLORA*         CLOUDY    55  41  59 SE9       29.83S
FAIRFIELD*     CLOUDY    56  42  58 SE6       29.80F
HARRISBURG*    CLOUDY    57  43  57 SE3       29.82F
ROBINSON*      CLOUDY    56  37  48 S9        29.85F
CARMI*         CLOUDY    55  41  59 SE7       29.82F
$$

ABBREVIATIONS USED IN REMARKS
   TC - TEMPERATURE IN CELSIUS
  WCI - WIND CHILL INDEX
   HX - HEAT INDEX
  VSB - VISIBILITY
$$




USA.gov is the U.S. government's official web portal to all federal, state and local government web resources and services.